Content
SEND FEEDBACK

Daily
Averages
Monthly
Summary
United States of America

KELDRON, SOUTH DAKOTA


Home > North America > United States > South Dakota
Elevation: 782 meters     Latitude: 45 56N     Longitude: 102 10W

WEATHER
 
SELECT A DAY
Number of Records: 188,823;   Date Range: 7/1/96 - 7/22/14
 
SHARE

PRINT THIS DATA

[ ← Previous Day ]
WEATHER ALMANAC - 31 JANUARY, 2013
[ Next Day → ]
[ °F ]   °C
Weather ElementAverageHighLow
Temperature-21.3 °C-13.9 °C (11:53 pm)-26.7 °C (6:53 am)
Dewpoint-26 °C-18.3 °C (11:53 pm)-30.6 °C (6:53 am)
Humidity66.7 %77 % (4:44 am)56 % (12:53 pm)
Barometer1026.4 hPa1032.5 hPa (9:53 am)1017.6 hPa (3:28 am)
Wind Speed24.6 km/h44.4 km/h (2:53 am)
Wind Gust55.5 km/h (2:53 am)
Weather ElementAverage
Visibility15.6 km
Wind DirectionWNW (283.2 °)

Weather ElementTotal
Precipitation---
Heating Degree Days38.7 (Base 18.3)
Averaged from 28 records on 31 January, 2013
WEATHER CONDITIONS BREAKOUT
WIND DIRECTION BREAKOUT
WEATHER BY HOUR - 31 JANUARY, 2013
[ °F ]   °C
Local TimeTemperatureDewpointHumidityBarometerVisibilityWind DirectionWind SpeedGust SpeedPrecipitationEventsConditions
1:53 AM-20.6 °C-25 °C69 %1022.4 hPa9.7 kmNNW (330°)42.6 km/h50.1 km/h0 mmOvercast
2:53 AM-22.8 °C-27.8 °C65 %1024 hPa16.1 kmNNW (330°)44.4 km/h55.5 km/h0 mmMostly Cloudy
3:28 AM-24 °C-28 °C70 %1017.6 hPa14.5 kmNW (320°)29.6 km/h44.4 km/hScattered Clouds
3:37 AM-24 °C-28 °C70 %1017.9 hPa9.7 kmNW (320°)33.3 km/h42.6 km/hHaze
3:53 AM-24.4 °C-28.3 °C71 %1025.7 hPa16.1 kmNW (320°)38.9 km/h50.1 km/hOvercast
4:14 AM-25 °C-29 °C70 %1018.3 hPa16.1 kmNW (320°)29.6 km/h48.1 km/hScattered Clouds
4:44 AM-26 °C-29 °C77 %1019 hPa16.1 kmNW (320°)40.7 km/h53.8 km/hPartly Cloudy
4:53 AM-25.6 °C-29.4 °C71 %1026.8 hPa16.1 kmNW (320°)37 km/h50.1 km/hClear
5:00 AM-26 °C-29 °C77 %1019.3 hPa16.1 kmNW (320°)29.6 km/h50.1 km/hPartly Cloudy
5:53 AM-26.1 °C-30 °C71 %1028.4 hPa16.1 kmNW (320°)35.2 km/h46.3 km/hPartly Cloudy
6:53 AM-26.7 °C-30.6 °C71 %1029.5 hPa16.1 kmNW (310°)24.1 km/hClear
7:53 AM-26.7 °C-30.6 °C71 %1030.8 hPa16.1 kmNW (310°)16.7 km/hClear
8:53 AM-25.6 °C-30 °C68 %1032.2 hPa16.1 kmWNW (290°)27.8 km/hClear
9:53 AM-24.4 °C-29.4 °C64 %1032.5 hPa16.1 kmWNW (290°)29.6 km/h37 km/hClear
10:53 AM-22.8 °C-28.3 °C62 %1032.2 hPa16.1 kmWest (280°)27.8 km/h35.2 km/hClear
11:53 AM-21.1 °C-27.2 °C59 %1031.5 hPa16.1 kmWNW (290°)31.5 km/hClear
12:53 PM-19.4 °C-26.1 °C56 %1030.1 hPa16.1 kmWNW (300°)25.9 km/hClear
1:53 PM-18.3 °C-25 °C57 %1029.5 hPa16.1 kmWNW (290°)24.1 km/hClear
2:53 PM-17.8 °C-24.4 °C57 %1029.1 hPa16.1 kmWNW (300°)20.4 km/hClear
3:53 PM-18.3 °C-24.4 °C60 %1029.5 hPa16.1 kmWest (280°)20.4 km/hClear
4:53 PM-19.4 °C-25 °C62 %1029.1 hPa16.1 kmWNW (290°)9.3 km/hMostly Cloudy
5:53 PM-17.8 °C-23.3 °C63 %1028.8 hPa16.1 kmWest (270°)11.1 km/hOvercast
6:53 PM-16.7 °C-21.7 °C66 %1028.1 hPa16.1 kmWSW (240°)7.4 km/hOvercast
7:53 PM-16.1 °C-21.1 °C66 %1027.8 hPa16.1 kmWSW (250°)11.1 km/hOvercast
8:53 PM-15.6 °C-20.6 °C66 %1026.8 hPa16.1 kmSSW (200°)11.1 km/hOvercast
9:53 PM-15.6 °C-20 °C70 %1025.4 hPa16.1 kmSouth (170°)9.3 km/hOvercast
10:53 PM-14.4 °C-18.9 °C69 %1024.7 hPa16.1 kmSouth (190°)9.3 km/hOvercast
11:53 PM-13.9 °C-18.3 °C70 %1023.4 hPa16.1 kmSSE (160°)11.1 km/hOvercast
Hourly data recorded from KHEI, located 0 kilometers away from Keldron, South Dakota







STORIES FROM OUR PARTNERS